******************************************************************************* JPL/HORIZONS Borisov (C/2019 Q4) 2025-Dec-12 18:04:12 Rec #:90004557 (+COV) Soln.date: 2024-Jun-24_15:49:04 # obs: 964 (2019-2020) IAU76/J2000 helio. ecliptic osc. elements (au, days, deg., period=Julian yrs): EPOCH= 2458853.5 ! 2020-Jan-05.0000000 (TDB) RMSW= n.a. EC= 3.356475782676596 QR= 2.006520878500843 TP= 2458826.052845906 OM= 308.1477292269942 W= 209.1236864378081 IN= 44.05264247909138 A= -.8514922551937886 MA= 34.42947030737667 ADIST= 9.999999E99 PER= 9.999999E99 N= 1.254391264 ANGMOM= .050859365 DAN= -4.52423 DDN= 2.22307 L= 149.9695468 B= -19.7799936 MOID= 1.09291995 TP= 2019-Dec-08.5528459060 Comet physical (GM= km^3/s^2; RAD= km): GM= n.a. RAD= n.a. M1= 13.8 M2= n.a. k1= 4.5 k2= n.a. PHCOF= n.a. Comet non-gravitational force model (AMRAT=m^2/kg;A1-A3=au/d^2;DT=days;R0=au): AMRAT= 0. DT= -65.1301 A1= 4.85958814621E-8 A2= 1.879898667336E-8 A3= 2.835503220558E-9 Non-standard or simulated/proxy model: ALN= 1. NK= 0. NM= 2. NN= 0. R0= 1. COMET comments 1: soln ref.= JPL#54, data arc: 2019-02-24 to 2020-09-30 2: k1=4.5; ******************************************************************************* ******************************************************************************* Ephemeris / WWW_USER Fri Dec 12 18:04:13 2025 Pasadena, USA / Horizons ******************************************************************************* Target body name: Borisov (C/2019 Q4) {source: JPL#54} Center body name: Sun (10) {source: DE441} Center-site name: BODYCENTRIC ******************************************************************************* Start time : A.D. 2019-Dec-08 13:32:43.0000 UT Stop time : A.D. 2019-Dec-08 13:32:47.0000 UT Step-size : 8 steps ******************************************************************************* Target pole/equ : undefined Target radii : undefined Center geodetic : 0.0, 0.0, -695700.0 {E-lon(deg),Lat(deg),Alt(km)} Center cylindric: 0.0, 0.0, 0.0 {E-lon(deg),Dxy(km),Dz(km)} Center pole/equ : IAU_SUN {East-longitude positive} Center radii : 695700.0, 695700.0, 695700.0 km {Equator_a, b, pole_c} Target primary : Sun Vis. interferer : None Rel. light bend : Sun {source: DE441} Rel. lght bnd GM: 1.3271E+11 km^3/s^2 Small-body perts: Yes {source: SB441-N16} Atmos refraction: NO (AIRLESS) RA format : HMS Time format : CAL Calendar mode : Mixed Julian/Gregorian EOP file : eop.251212.p260310 EOP coverage : DATA-BASED 1962-JAN-20 TO 2025-DEC-12. PREDICTS-> 2026-MAR-09 Units conversion: 1 au= 149597870.700 km, c= 299792.458 km/s, 1 day= 86400.0 s Table cut-offs 1: Elevation (-90.0deg=NO ),Airmass n.a. , Daylight (NO ) Table cut-offs 2: Solar elongation ( 0.0,180.0=NO ),Local Hour Angle( 0.0=NO ) Table cut-offs 3: RA/DEC angular rate ( 0.0=NO ) ******************************************************************************* Initial IAU76/J2000 heliocentric ecliptic osculating elements (au, days, deg.): EPOCH= 2458853.5 ! 2020-Jan-05.0000000 (TDB) RMSW= n.a. EC= 3.356475782676596 QR= 2.006520878500843 TP= 2458826.052845906 OM= 308.1477292269942 W= 209.1236864378081 IN= 44.05264247909138 Equivalent ICRF heliocentric cartesian coordinates (au, au/d): X=-1.746422156220264E+00 Y= 7.994315507603348E-01 Z=-8.420898120636099E-01 VX=-3.266387554200373E-03 VY=-1.273246218308122E-02 VZ=-2.137606337596023E-02 Comet physical (GM= km^3/s^2; RAD= km): GM= n.a. RAD= n.a. M1= 13.8 M2= n.a. k1= 4.5 k2= n.a. PHCOF= n.a. Comet non-gravitational force model (AMRAT=m^2/kg;A1-A3=au/d^2;DT=days;R0=au): AMRAT= 0. DT= -65.1301 A1= 4.85958814621E-8 A2= 1.879898667336E-8 A3= 2.835503220558E-9 Non-standard or simulated/proxy model: ALN= 1. NK= 0. NM= 2. NN= 0. R0= 1. ********************************************************************************************************* Date__(UT)__HR:MN:SC.fff r rdot VmagSn VmagOb RNG_3sigma RNGRT_3sig ********************************************************************************************************* $$SOE 2019-Dec-08 13:32:43.000 2.006523191231 -0.0000110 43.8872976 43.8872972 1479.6971 0.0002876 2019-Dec-08 13:32:43.500 2.006523191231 -0.0000086 43.8872976 43.8872972 1479.6970 0.0002876 2019-Dec-08 13:32:44.000 2.006523191230 -0.0000061 43.8872976 43.8872972 1479.6970 0.0002876 2019-Dec-08 13:32:44.500 2.006523191230 -0.0000036 43.8872976 43.8872972 1479.6969 0.0002876 2019-Dec-08 13:32:45.000 2.006523191230 -0.0000011 43.8872976 43.8872972 1479.6969 0.0002876 2019-Dec-08 13:32:45.500 2.006523191230 0.0000013 43.8872976 43.8872972 1479.6968 0.0002876 2019-Dec-08 13:32:46.000 2.006523191230 0.0000038 43.8872976 43.8872972 1479.6968 0.0002876 2019-Dec-08 13:32:46.500 2.006523191230 0.0000063 43.8872976 43.8872972 1479.6967 0.0002876 2019-Dec-08 13:32:47.000 2.006523191231 0.0000087 43.8872976 43.8872972 1479.6967 0.0002876 $$EOE ********************************************************************************************************* Column meaning: TIME Times PRIOR to 1962 are UT1, a mean-solar time closely related to the prior but now-deprecated GMT. Times AFTER 1962 are in UTC, the current civil or "wall-clock" time-scale. UTC is kept within 0.9 seconds of UT1 using integer leap-seconds for 1972 and later years. Conversion from the internal Barycentric Dynamical Time (TDB) of solar system dynamics to the non-uniform civil UT time-scale requested for output has not been determined for UTC times after the next July or January 1st. Therefore, the last known leap-second is used as a constant over future intervals. Time tags refer to the UT time-scale conversion from TDB on Earth regardless of observer location within the solar system, although clock rates may differ due to the local gravity field and no analog to "UT" may be defined for that location. Any 'b' symbol in the 1st-column denotes a B.C. date. First-column blank (" ") denotes an A.D. date. CALENDAR SYSTEM Mixed calendar mode was active such that calendar dates after AD 1582-Oct-15 (if any) are in the modern Gregorian system. Dates prior to 1582-Oct-5 (if any) are in the Julian calendar system, which is automatically extended for dates prior to its adoption on 45-Jan-1 BC. The Julian calendar is useful for matching historical dates. The Gregorian calendar more accurately corresponds to the Earth's orbital motion and seasons. A "Gregorian-only" calendar mode is available if such physical events are the primary interest. NOTE: "n.a." in output means quantity "not available" at the print-time. STATISTICAL UNCERTAINTIES Output includes formal +/- 3 standard-deviation statistical orbit uncertainty quantities. There is a 99.7% (1-D) or 98.9% (2-D) chance the actual value is within given bounds. These statistical calculations assume observational data errors are random. If there are systematic biases (such as timing, reduction or star-catalog errors), results can be optimistic. Because the epoch covariance is mapped using linearized variational partial derivatives, results can also be optimistic for times far from the solution epoch, particularly for objects having close planetary encounters. 'r rdot' = The Sun's apparent range ("r", light-time aberrated) and range-rate ("rdot") relative to the target center, as seen by the observer. A positive "rdot" means the target center was moving away from the Sun, negative means moving toward the Sun. Units: AU and KM/S 'VmagSn VmagOb' = Magnitude of target centers' velocity with respect to the Sun ("VmagSn") and the observer ("VmagOb") at the time light left the target center to be observed (print time minus down-leg light-time). These are absolute values of the velocity vectors (total speeds) and do NOT indicate direction of motion. Units: KM/S 'RNG_3sigma RNGRT_3sig' = Range and range rate (radial velocity) formal 3-standard-deviation uncertainties. Units: KM, KM/S Computations by ... Solar System Dynamics Group, Horizons On-Line Ephemeris System 4800 Oak Grove Drive, Jet Propulsion Laboratory Pasadena, CA 91109 USA General site: https://ssd.jpl.nasa.gov/ Mailing list: https://ssd.jpl.nasa.gov/email_list.html System news : https://ssd.jpl.nasa.gov/horizons/news.html User Guide : https://ssd.jpl.nasa.gov/horizons/manual.html Connect : browser https://ssd.jpl.nasa.gov/horizons/app.html#/x API https://ssd-api.jpl.nasa.gov/doc/horizons.html command-line telnet ssd.jpl.nasa.gov 6775 e-mail/batch https://ssd.jpl.nasa.gov/ftp/ssd/horizons_batch.txt scripts https://ssd.jpl.nasa.gov/ftp/ssd/SCRIPTS Author : Jon.D.Giorgini@jpl.nasa.gov ********************************************************************************************************* !$$SOF CENTER = '@Sun' COMMAND = '2I' QUANTITIES = '19,22,39' START_TIME = '2019-12-08 13:32:43' STEP_SIZE = '8' STOP_TIME = '2019-12-08 13:32:47'